Weather History for Doha, Qatar

Change the Weather History Date:

Thursday, March 27, 2014

  Actual Average Record
Temperature  
Mean Temperature 72 °F -  
Max Temperature 81 °F 88 °F 93 °F (2008)
Min Temperature 63 °F 68 °F 62 °F (2001)
Cooling Degree Days 7    
Growing Degree Days 22 (Base 50)    
Moisture  
Dew Point 60 °F    
Average Humidity 67    
Maximum Humidity 94    
Minimum Humidity 35    
Precipitation  
Precipitation 0.00 in 0.01 in - ()
Sea Level Pressure  
Sea Level Pressure 29.97 in    
Wind  
Wind Speed 4 mph ()    
Max Wind Speed 9 mph    
Max Gust Speed -    
Visibility 6.1 miles    
Events      
Averages and records for this station are not official NWS values.
T = Trace of Precipitation, MM = Missing Value Source: Averaged Metar Reports

Daily Weather History Graph

Daily Weather History Graph

Search for Another Location

Airport:

Trip Planner

Search our weather history database for the weather conditions in past years. The results will help you decide how hot, cold, wet, or windy it might be!

Date:

Astronomy

Mar. 27, 2014 Rise Set
Actual Time 5:30 AM AST 5:47 PM AST
Civil Twilight 5:07 AM AST 6:10 PM AST
Nautical Twilight 4:41 AM AST 6:37 PM AST
Astronomical Twilight 4:14 AM AST 7:04 PM AST
Moon 2:43 AM AST (3/27) 2:28 PM AST (3/27)
Length of Visible Light 13h 02m
Length of Day
12h 17m
Waning Crescent, 15% of the Moon is Illuminated
Mar 27
Waning Crescent
Mar 30
New
Apr 7
First Quarter
Apr 15
Full
Apr 22
Last Quarter

Hourly Weather History & Observations

Time (AST) Temp. Heat Index Dew Point Humidity Pressure Visibility Wind Dir Wind Speed Gust Speed Precip Events Conditions
12:00 AM 66 °F - 62 °F 82% 29.94 in 7 mi Calm Calm - -  
12:00 AM 66.2 °F - 62.6 °F 88% 29.92 in - Calm Calm - N/A   Clear
12:30 AM 66.2 °F - 62.6 °F 88% 29.92 in - WSW 3.5 mph - N/A   Clear
1:00 AM 66.2 °F - 60.8 °F 83% 29.92 in - WNW 3.5 mph - N/A   Clear
1:30 AM 66.2 °F - 62.6 °F 88% 29.92 in - Variable 1.2 mph - N/A   Clear
2:00 AM 64.4 °F - 62.6 °F 94% 29.92 in - Variable 1.2 mph - N/A   Clear
3:00 AM 65 °F - 61 °F 83% 29.92 in 6 mi NW 6.9 mph - -  
3:00 AM 64.4 °F - 60.8 °F 88% 29.92 in - NW 6.9 mph - N/A   Clear
3:30 AM 64.4 °F - 60.8 °F 88% 29.92 in - NNW 3.5 mph - N/A   Clear
4:00 AM 64.4 °F - 60.8 °F 88% 29.92 in - Variable 2.3 mph - N/A   Clear
4:30 AM 64.4 °F - 60.8 °F 88% 29.95 in - NW 3.5 mph - N/A   Clear
5:00 AM 64.4 °F - 60.8 °F 88% 29.95 in 5.6 mi Variable 2.3 mph - N/A   Unknown
5:30 AM 64.4 °F - 60.8 °F 88% 29.98 in 3.7 mi Variable 2.3 mph - N/A   Unknown
6:00 AM 64 °F - 61 °F 87% 29.99 in 4 mi 2.3 mph - -   Haze
6:00 AM 64.4 °F - 60.8 °F 88% 29.98 in 3.7 mi Variable 2.3 mph - N/A   Unknown
9:00 AM 71 °F - 61 °F 62% 30.03 in 6 mi WNW 5.8 mph - -  
9:30 AM 73.4 °F - 60.8 °F 65% 30.01 in - NW 6.9 mph - N/A   Clear
10:00 AM 75.2 °F - 59.0 °F 57% 30.01 in - NNW 4.6 mph - N/A   Clear
11:00 AM 75.2 °F - 57.2 °F 53% 30.01 in - North 6.9 mph - N/A   Clear
11:30 AM 77.0 °F - 59.0 °F 54% 30.01 in - WNW 5.8 mph - N/A   Clear
12:00 PM 77 °F - 59 °F 44% 30.00 in 7 mi NW 6.9 mph - -   Scattered Clouds
12:00 PM 77.0 °F - 59.0 °F 54% 29.98 in 6.2 mi NW 6.9 mph - N/A   Partly Cloudy
1:00 PM 80.6 °F 80.8 °F 57.2 °F 45% 29.95 in 6.2 mi NW 8.1 mph - N/A   Partly Cloudy
2:00 PM 78.8 °F - 59.0 °F 51% 29.95 in 6.2 mi North 9.2 mph - N/A   Partly Cloudy
2:30 PM 80.6 °F 81.1 °F 59.0 °F 48% 29.92 in 6.2 mi NNE 9.2 mph - N/A   Partly Cloudy
3:00 PM 80 °F - 57 °F 35% 29.94 in 9 mi North 9.2 mph - -   Scattered Clouds
3:00 PM 80.6 °F 80.8 °F 57.2 °F 45% 29.92 in 6.2 mi North 9.2 mph - N/A   Partly Cloudy
3:30 PM 78.8 °F - 60.8 °F 54% 29.92 in 6.2 mi North 9.2 mph - N/A   Partly Cloudy
4:00 PM 78.8 °F - 59.0 °F 51% 29.95 in 6.2 mi NNE 8.1 mph - N/A   Partly Cloudy
4:30 PM 77.0 °F - 60.8 °F 57% 29.95 in 6.2 mi NNE 8.1 mph - N/A   Partly Cloudy
5:00 PM 77.0 °F - 57.2 °F 50% 29.95 in - NE 6.9 mph - N/A   Clear
5:30 PM 75.2 °F - 57.2 °F 53% 29.95 in - NE 3.5 mph - N/A   Clear
6:00 PM 75 °F - 57 °F 44% 29.97 in 9 mi NNE 4.6 mph - -  
6:00 PM 75.2 °F - 57.2 °F 53% 29.95 in - NNE 4.6 mph - N/A   Clear
6:30 PM 73.4 °F - 59.0 °F 61% 29.98 in - NNE 4.6 mph - N/A   Clear
7:00 PM 73.4 °F - 59.0 °F 61% 29.98 in - Variable 2.3 mph - N/A   Clear
7:30 PM 73.4 °F - 60.8 °F 65% 29.98 in - Variable 1.2 mph - N/A   Clear
8:00 PM 73.4 °F - 59.0 °F 61% 30.01 in - Variable 2.3 mph - N/A   Clear
8:30 PM 73.4 °F - 59.0 °F 61% 30.01 in - SSE 4.6 mph - N/A   Clear
9:00 PM 72 °F - 62 °F 63% 30.01 in 9 mi South 4.6 mph - -  
9:00 PM 73.4 °F - 62.6 °F 69% 30.01 in - South 4.6 mph - N/A   Clear
9:30 PM 71.6 °F - 62.6 °F 73% 30.01 in - South 3.5 mph - N/A   Clear
10:00 PM 71.6 °F - 64.4 °F 78% 30.01 in 5.0 mi SW 3.5 mph - N/A   Unknown
10:30 PM 71.6 °F - 64.4 °F 78% 30.01 in 4.3 mi SSW 4.6 mph - N/A   Unknown
11:00 PM 69.8 °F - 64.4 °F 83% 29.98 in 4.3 mi SW 5.8 mph - N/A   Unknown